Starlink 5743

operational
NORAD ID: 55597 Int'l Des: 2023-020 Owner: SPXS Country: US Constellation: starlink
LEOCIRCULAR

About Starlink 5743

Description loading...

Live Position

Loading 3D Globe...

Upcoming Passes

Altitude History

Altitude vs Time

uPlot chart will show altitude changes over time

Two-Line Element Set

1 55597U 23020AE 25344.66552856 .00000788 00000-0 73399-4 0 9997
2 55597 43.0029 115.7622 0001630 280.9009 79.1650 15.02547957155670
Epoch: Dec 10, 2025 • Age: 21 hours

Current Status

Altitude 558.3 km
Velocity 7.59 km/s
Sub-Earth Point 15.66°N, 144.29°W
Launch Date Feb 12, 2023
Age 2.8 years
Type internet

Technical Details

Classification Payload
Mass 305.00 kg
Dry Mass 290.00 kg
Total Mass 305.00 kg
Length 0.20 m
Diameter 2.80 m
Span 9.00 m
Shape Box + pan
Manufacturer SPXS
Bus Type Starlink
Phase Status In Orbit
Owner/State SPXS/US

Large Constellations

Loading constellations...